TimeCST,TemperatureF,Dew PointF,Humidity,Sea Level PressureIn,VisibilityMPH,Wind Direction,Wind SpeedMPH,Gust SpeedMPH,PrecipitationIn,Events,Conditions,WindDirDegrees,DateUTC
12:15 AM,51.1,46.9,86,29.53,10.0,SE,17.3,-,N/A,Rain-Thunderstorm,Light Thunderstorms and Rain,140,2012-12-20 06:15:00
12:35 AM,52.3,47.3,83,29.52,10.0,SE,16.1,24.2,N/A,Thunderstorm,Overcast,140,2012-12-20 06:35:00
12:55 AM,52.0,47.5,85,29.51,10.0,SSE,15.0,-,0.01,Rain-Thunderstorm,Light Thunderstorms and Rain,150,2012-12-20 06:55:00
1:35 AM,52.3,48.6,87,29.50,10.0,SSE,18.4,-,0.02,Rain,Light Rain,160,2012-12-20 07:35:00
1:55 AM,52.0,49.1,90,29.51,7.0,South,16.1,24.2,0.06,Rain,Heavy Rain,170,2012-12-20 07:55:00
2:15 AM,51.4,49.1,92,29.51,7.0,SSW,11.5,-,0.02,Rain,Light Rain,210,2012-12-20 08:15:00
2:35 AM,50.5,48.6,93,29.50,7.0,South,8.1,-,0.04,Rain-Thunderstorm,Rain,190,2012-12-20 08:35:00
2:55 AM,50.4,48.9,95,29.47,7.0,SSE,5.8,-,0.08,Rain,Rain,150,2012-12-20 08:55:00
3:15 AM,50.4,49.1,95,29.45,5.0,SE,6.9,-,0.03,Rain,Rain,140,2012-12-20 09:15:00
3:35 AM,50.5,49.5,96,29.44,5.0,SE,6.9,-,0.07,Rain-Thunderstorm,Rain,130,2012-12-20 09:35:00
3:55 AM,50.7,49.6,96,29.40,5.0,SE,10.4,-,0.11,Rain,Rain,130,2012-12-20 09:55:00
4:15 AM,51.8,50.9,97,29.33,7.0,SE,15.0,-,0.01,Rain,Light Rain,130,2012-12-20 10:15:00
4:35 AM,52.5,51.4,96,29.30,10.0,SE,17.3,25.3,0.01,Rain,Light Rain,130,2012-12-20 10:35:00
4:55 AM,53.1,51.8,95,29.26,10.0,SE,19.6,31.1,0.01,,Mostly Cloudy,130,2012-12-20 10:55:00
5:15 AM,53.6,51.6,93,29.27,10.0,SSE,10.4,18.4,N/A,,Mostly Cloudy,150,2012-12-20 11:15:00
5:35 AM,53.2,51.3,93,29.26,10.0,SE,12.7,17.3,N/A,,Mostly Cloudy,140,2012-12-20 11:35:00
5:55 AM,53.6,51.4,92,29.25,10.0,SE,13.8,19.6,N/A,,Overcast,140,2012-12-20 11:55:00
6:15 AM,53.1,51.1,93,29.25,10.0,SE,19.6,-,N/A,,Mostly Cloudy,140,2012-12-20 12:15:00
6:35 AM,52.7,50.9,94,29.25,10.0,SSE,15.0,-,N/A,,Mostly Cloudy,160,2012-12-20 12:35:00
6:55 AM,52.5,50.7,94,29.25,10.0,South,15.0,19.6,N/A,,Overcast,170,2012-12-20 12:55:00
7:15 AM,53.6,51.1,91,29.24,10.0,South,21.9,31.1,N/A,,Overcast,170,2012-12-20 13:15:00
7:35 AM,53.6,50.9,91,29.23,10.0,South,18.4,26.5,N/A,,Overcast,180,2012-12-20 13:35:00
7:55 AM,54.5,50.2,85,29.23,10.0,South,20.7,26.5,N/A,,Scattered Clouds,190,2012-12-20 13:55:00
8:15 AM,54.5,50.0,85,29.22,10.0,SSW,24.2,28.8,N/A,,Scattered Clouds,200,2012-12-20 14:15:00
8:55 AM,50.2,41.5,72,29.25,10.0,WSW,19.6,35.7,N/A,,Mostly Cloudy,240,2012-12-20 14:55:00
9:15 AM,49.3,39.4,69,29.25,10.0,SW,32.2,40.3,N/A,,Scattered Clouds,230,2012-12-20 15:15:00
9:35 AM,47.5,39.2,73,29.26,10.0,WSW,27.6,40.3,N/A,,Scattered Clouds,240,2012-12-20 15:35:00
9:55 AM,45.7,35.1,66,29.27,10.0,SW,38.0,48.3,N/A,,Mostly Cloudy,230,2012-12-20 15:55:00
10:15 AM,44.1,35.4,72,29.27,10.0,SW,29.9,41.4,N/A,,Scattered Clouds,230,2012-12-20 16:15:00
10:35 AM,43.2,32.7,67,29.27,10.0,SW,39.1,46.0,N/A,,Mostly Cloudy,230,2012-12-20 16:35:00
10:55 AM,41.5,32.4,70,29.27,10.0,WSW,27.6,38.0,N/A,,Mostly Cloudy,240,2012-12-20 16:55:00
11:15 AM,41.2,33.4,74,29.27,10.0,SW,28.8,35.7,N/A,,Mostly Cloudy,230,2012-12-20 17:15:00
11:35 AM,39.6,33.6,79,29.27,10.0,SW,31.1,38.0,N/A,,Overcast,230,2012-12-20 17:35:00
11:55 AM,38.3,34.7,87,29.27,5.0,WSW,28.8,39.1,N/A,,Drizzle,240,2012-12-20 17:55:00
12:15 PM,37.0,34.7,91,29.28,3.0,West,27.6,38.0,N/A,,Drizzle,260,2012-12-20 18:15:00
12:35 PM,35.8,33.6,92,29.30,4.0,West,32.2,36.8,N/A,Rain,Light Rain,270,2012-12-20 18:35:00
12:55 PM,35.2,32.9,91,29.32,4.0,West,29.9,38.0,N/A,,Overcast,270,2012-12-20 18:55:00
1:15 PM,34.3,32.2,92,29.33,1.2,West,31.1,40.3,N/A,Snow,Light Snow,270,2012-12-20 19:15:00
1:35 PM,34.2,32.0,92,29.35,2.5,West,32.2,42.6,N/A,,Unknown,270,2012-12-20 19:35:00
1:55 PM,33.3,31.5,93,29.38,1.5,West,35.7,48.3,N/A,Snow,Light Snow,270,2012-12-20 19:55:00
2:35 PM,32.5,30.9,94,29.43,1.0,West,29.9,44.9,N/A,Snow,Light Snow,270,2012-12-20 20:35:00
2:55 PM,32.0,30.7,95,29.45,0.8,West,35.7,46.0,N/A,Snow,Light Snow,270,2012-12-20 20:55:00
3:15 PM,32.0,30.0,92,29.48,0.8,West,39.1,49.5,N/A,Snow,Light Snow,280,2012-12-20 21:15:00
3:35 PM,31.6,29.3,91,29.50,0.8,West,39.1,49.5,N/A,Snow,Light Snow,280,2012-12-20 21:35:00
3:55 PM,31.3,29.1,92,29.53,0.8,West,41.4,51.8,N/A,Snow,Light Snow,280,2012-12-20 21:55:00
4:15 PM,31.1,28.8,91,29.55,0.8,West,42.6,59.8,N/A,Snow,Light Snow,280,2012-12-20 22:15:00
4:35 PM,25.0,22.5,90,29.58,0.8,West,29.9,43.7,N/A,Snow,Light Snow,280,2012-12-20 22:35:00
4:55 PM,24.1,21.7,91,29.61,1.0,West,39.1,50.6,N/A,Snow,Light Snow,280,2012-12-20 22:55:00
5:15 PM,25.3,23.0,91,29.63,0.8,West,40.3,48.3,N/A,Snow,Snow,280,2012-12-20 23:15:00
5:35 PM,18.5,16.5,92,29.65,1.0,West,35.7,42.6,N/A,Snow,Snow,280,2012-12-20 23:35:00
5:55 PM,22.5,20.3,91,29.67,0.8,WNW,38.0,48.3,N/A,Snow,Snow,290,2012-12-20 23:55:00
6:15 PM,23.9,20.3,86,29.68,2.0,WNW,40.3,48.3,N/A,Snow,Light Snow,290,2012-12-21 00:15:00
6:35 PM,22.8,18.5,83,29.70,3.0,West,42.6,49.5,N/A,Snow,Light Snow,280,2012-12-21 00:35:00
6:55 PM,23.7,18.9,82,29.71,3.0,WNW,35.7,44.9,N/A,,Haze,290,2012-12-21 00:55:00
7:15 PM,24.1,18.7,80,29.73,5.0,WNW,36.8,49.5,N/A,,Haze,290,2012-12-21 01:15:00
7:35 PM,15.1,9.7,79,29.74,5.0,WNW,33.4,49.5,N/A,,Haze,290,2012-12-21 01:35:00
7:55 PM,17.2,11.5,78,29.75,10.0,WNW,33.4,42.6,N/A,,Overcast,290,2012-12-21 01:55:00
8:15 PM,13.3,7.2,77,29.76,10.0,WNW,38.0,47.2,N/A,,Overcast,290,2012-12-21 02:15:00
8:35 PM,8.4,2.8,78,29.78,10.0,WNW,32.2,43.7,N/A,,Overcast,290,2012-12-21 02:35:00
8:55 PM,7.9,1.8,76,29.79,10.0,WNW,31.1,39.1,N/A,,Overcast,290,2012-12-21 02:55:00
9:15 PM,3.2,-5.1,68,-9999,10.0,WNW,31.1,38.0,N/A,,Overcast,290,2012-12-21 03:15:00
9:35 PM,11.5,2.7,68,29.81,10.0,WNW,29.9,48.3,N/A,,Overcast,290,2012-12-21 03:35:00
9:55 PM,8.8,2.8,77,29.82,10.0,WNW,26.5,41.4,N/A,,Overcast,290,2012-12-21 03:55:00
10:15 PM,10.2,3.6,74,29.83,10.0,WNW,33.4,41.4,N/A,,Overcast,290,2012-12-21 04:15:00
10:35 PM,18.7,9.9,69,29.83,10.0,WNW,29.9,36.8,N/A,,Overcast,290,2012-12-21 04:35:00
10:55 PM,9.3,2.3,73,29.84,10.0,West,28.8,40.3,N/A,,Overcast,280,2012-12-21 04:55:00
11:15 PM,7.2,1.0,76,29.86,10.0,WNW,31.1,43.7,N/A,,Overcast,290,2012-12-21 05:15:00
11:35 PM,14.9,4.6,64,29.86,10.0,WNW,33.4,40.3,N/A,,Mostly Cloudy,290,2012-12-21 05:35:00
11:55 PM,11.8,-2.4,53,29.87,10.0,WNW,25.3,35.7,N/A,,Mostly Cloudy,290,2012-12-21 05:55:00